CES7630 ZUXC-PHNL

Flight info

Callsign CES7630
Flight time N/A
Altitude 35100
Route BOPTU W162 KAKMI W144 IGNAK W179 WFX B213 ESPEG V154 SNF W269 OLPOV B213 WHA R343 PK A593 AKARA/K0911F351 A593 LAMEN/N0492F351 A593 SADLI Y590 BEDAR Y591 FUE Y23 KASTE Y81 TASOT Y57 LIGNI Y816 IPROS Y830 LAPIL OTR13 SEALS DCT 34N153E DCT 34N159E DCT 33N166E DCT 31N173E DCT 29N179E DCT 27N174W DCT 25N168W DCT CANON DCT CANON
Aircraft MD11/H-SDE1E2E3FGHIJ2J3J4J5M1RWXY/LB1D1

Departure

Time 2026-05-07 14:44
Airport Xichang Qingshan Airport (ZUXC)

Arrival

Time N/A
Airport Daniel K. Inouye International Airport (PHNL)
Time Latitude Longitude Altitude Speed Heading
2026-05-07 14:27 27.98292 102.18647 5109 ft 0 kts 88°
2026-05-07 14:33 27.98292 102.18630 5111 ft 4 kts 93°
2026-05-07 14:33 27.98293 102.18602 5117 ft 4 kts 83°
2026-05-07 14:33 27.98288 102.18581 5117 ft 4 kts 37°
2026-05-07 14:33 27.98276 102.18575 5121 ft 4 kts 342°
2026-05-07 14:34 27.98250 102.18586 5120 ft 4 kts 341°
2026-05-07 14:34 27.98227 102.18593 5119 ft 2 kts 359°
2026-05-07 14:34 27.98225 102.18593 5120 ft 1 kts 360°
2026-05-07 14:36 27.98249 102.18593 5089 ft 8 kts 360°
2026-05-07 14:37 27.98338 102.18591 5089 ft 17 kts 358°
2026-05-07 14:37 27.98595 102.18583 5089 ft 18 kts 358°
2026-05-07 14:37 27.98714 102.18577 5089 ft 17 kts 358°
2026-05-07 14:38 27.98827 102.18571 5089 ft 16 kts 357°
2026-05-07 14:38 27.98933 102.18566 5090 ft 15 kts 358°
2026-05-07 14:38 27.99033 102.18563 5090 ft 14 kts 358°
2026-05-07 14:38 27.99127 102.18560 5090 ft 13 kts 358°
2026-05-07 14:39 27.99216 102.18556 5090 ft 12 kts 358°
2026-05-07 14:39 27.99301 102.18553 5090 ft 12 kts 358°
2026-05-07 14:39 27.99384 102.18550 5090 ft 12 kts 358°
2026-05-07 14:39 27.99465 102.18546 5090 ft 11 kts 358°
2026-05-07 14:40 27.99543 102.18542 5090 ft 12 kts 358°
2026-05-07 14:40 27.99628 102.18539 5090 ft 13 kts 359°
2026-05-07 14:40 27.99721 102.18537 5090 ft 14 kts 359°
2026-05-07 14:40 27.99823 102.18534 5089 ft 15 kts 358°
2026-05-07 14:41 27.99933 102.18529 5089 ft 16 kts 357°
2026-05-07 14:41 28.00045 102.18523 5090 ft 17 kts 357°
2026-05-07 14:41 28.00163 102.18517 5089 ft 17 kts 358°
2026-05-07 14:41 28.00287 102.18513 5089 ft 18 kts 358°
2026-05-07 14:42 28.00402 102.18509 5089 ft 13 kts 358°
2026-05-07 14:42 28.00467 102.18507 5090 ft 6 kts 358°
2026-05-07 14:42 28.00498 102.18493 5090 ft 3 kts 316°
2026-05-07 14:42 28.00502 102.18477 5090 ft 2 kts 282°
2026-05-07 14:43 28.00504 102.18450 5091 ft 6 kts 274°
2026-05-07 14:43 28.00500 102.18383 5091 ft 10 kts 249°
2026-05-07 14:43 28.00453 102.18366 5091 ft 7 kts 168°
2026-05-07 14:43 28.00321 102.18376 5091 ft 51 kts 178°
2026-05-07 14:44 27.99706 102.18398 5091 ft 124 kts 178°
2026-05-07 14:44 27.98648 102.18435 5092 ft 176 kts 179°
2026-05-07 14:44 27.97395 102.18453 5478 ft 183 kts 174°
2026-05-07 14:44 27.96083 102.18506 5932 ft 191 kts 171°
2026-05-07 14:45 27.94769 102.18590 6608 ft 188 kts 169°
2026-05-07 14:45 27.93460 102.18686 7206 ft 190 kts 169°
2026-05-07 14:45 27.92137 102.18780 7774 ft 192 kts 169°
2026-05-07 14:45 27.90798 102.18863 8311 ft 196 kts 171°
2026-05-07 14:46 27.89356 102.18679 8498 ft 223 kts 188°
2026-05-07 14:46 27.87813 102.18120 8701 ft 241 kts 193°
2026-05-07 14:46 27.86210 102.17590 9067 ft 237 kts 178°
2026-05-07 14:46 27.84654 102.17870 9479 ft 222 kts 147°
2026-05-07 14:47 27.83507 102.18945 9852 ft 213 kts 124°
2026-05-07 14:47 27.82588 102.20261 10226 ft 215 kts 122°
2026-05-07 14:47 27.81653 102.21583 10593 ft 216 kts 124°
2026-05-07 14:47 27.80734 102.22925 10958 ft 214 kts 118°
2026-05-07 14:48 27.80007 102.24406 11134 ft 219 kts 108°
2026-05-07 14:48 27.79601 102.26069 11264 ft 224 kts 95°
2026-05-07 14:48 27.79614 102.27873 11406 ft 237 kts 80°
2026-05-07 14:48 27.80121 102.29692 11556 ft 250 kts 68°
2026-05-07 14:49 27.80891 102.31512 11673 ft 263 kts 65°
2026-05-07 14:49 27.81743 102.33413 11794 ft 281 kts 65°
2026-05-07 14:49 27.82670 102.35469 11936 ft 307 kts 65°
2026-05-07 14:49 27.83676 102.37705 12063 ft 331 kts 65°
2026-05-07 14:50 27.84727 102.40043 12726 ft 335 kts 65°
2026-05-07 14:50 27.85785 102.42396 13489 ft 336 kts 65°
2026-05-07 14:50 27.86842 102.44753 14297 ft 336 kts 64°
2026-05-07 14:50 27.87898 102.47111 15088 ft 336 kts 64°
2026-05-07 14:51 27.88950 102.49465 15867 ft 335 kts 63°
2026-05-07 14:51 27.89992 102.51787 16630 ft 336 kts 62°
2026-05-07 14:51 27.91050 102.54138 17392 ft 335 kts 61°
2026-05-07 14:51 27.92113 102.56497 18114 ft 338 kts 60°
2026-05-07 14:52 27.93183 102.58869 18848 ft 340 kts 60°
2026-05-07 14:52 27.94261 102.61259 19527 ft 342 kts 59°
2026-05-07 14:52 27.95346 102.63665 20142 ft 345 kts 58°
2026-05-07 14:52 27.96442 102.66096 20690 ft 348 kts 57°
2026-05-07 14:53 27.97545 102.68546 21268 ft 351 kts 56°
2026-05-07 14:53 27.98658 102.71018 21817 ft 355 kts 56°
2026-05-07 14:53 27.99781 102.73514 22332 ft 358 kts 56°
2026-05-07 14:53 28.00915 102.76038 22861 ft 361 kts 57°
2026-05-07 14:54 28.02059 102.78585 23360 ft 365 kts 56°
2026-05-07 14:54 28.03213 102.81158 23844 ft 369 kts 57°
2026-05-07 14:54 28.04378 102.83754 24338 ft 371 kts 57°
2026-05-07 14:54 28.05552 102.86375 24807 ft 375 kts 57°
2026-05-07 14:55 28.06735 102.89016 25245 ft 378 kts 57°
2026-05-07 14:55 28.07926 102.91679 25718 ft 380 kts 57°
2026-05-07 14:55 28.09081 102.94282 26793 ft 362 kts 57°
2026-05-07 14:55 28.10206 102.96813 27448 ft 359 kts 57°
2026-05-07 14:56 28.11331 102.99332 28089 ft 358 kts 56°
2026-05-07 14:56 28.12454 103.01844 28656 ft 357 kts 56°
2026-05-07 14:56 28.13575 103.04352 29217 ft 356 kts 56°
2026-05-07 14:56 28.14690 103.06851 29795 ft 355 kts 56°
2026-05-07 14:57 28.15802 103.09345 30297 ft 354 kts 56°
2026-05-07 14:57 28.16913 103.11838 30754 ft 354 kts 56°
2026-05-07 14:57 28.18020 103.14325 31246 ft 353 kts 56°
2026-05-07 14:57 28.19121 103.16803 31734 ft 351 kts 57°
2026-05-07 14:58 28.20217 103.19268 32161 ft 351 kts 56°
2026-05-07 14:58 28.21313 103.21735 32591 ft 350 kts 56°
2026-05-07 14:58 28.22403 103.24192 32977 ft 349 kts 56°
2026-05-07 14:58 28.23491 103.26645 33370 ft 348 kts 56°
2026-05-07 14:59 28.24578 103.29096 33740 ft 348 kts 56°
2026-05-07 14:59 28.25663 103.31543 34116 ft 347 kts 56°
2026-05-07 14:59 28.26739 103.33979 34500 ft 345 kts 56°
2026-05-07 14:59 28.27805 103.36409 34838 ft 342 kts 56°
2026-05-07 15:00 28.28872 103.38840 34977 ft 348 kts 56°
2026-05-07 15:00 28.29958 103.41305 35036 ft 351 kts 57°
2026-05-07 15:00 28.32136 103.46255 35029 ft 347 kts 56°
2026-05-07 15:01 28.34282 103.51133 35026 ft 345 kts 56°
2026-05-07 15:01 28.36428 103.56003 35031 ft 345 kts 56°
2026-05-07 15:02 28.38570 103.60871 35032 ft 345 kts 56°
2026-05-07 15:02 28.40711 103.65741 35025 ft 345 kts 56°
2026-05-07 15:03 28.42855 103.70626 35025 ft 345 kts 57°
2026-05-07 15:03 28.44994 103.75505 35028 ft 345 kts 57°
2026-05-07 15:04 28.47133 103.80391 35028 ft 346 kts 56°
2026-05-07 15:04 28.49272 103.85282 35025 ft 344 kts 57°
2026-05-07 15:05 28.51390 103.90130 35024 ft 345 kts 57°
2026-05-07 15:05 28.53527 103.95027 35031 ft 347 kts 57°
2026-05-07 15:06 28.55659 103.99924 35024 ft 345 kts 57°
2026-05-07 15:06 28.57790 104.04828 35022 ft 345 kts 57°
2026-05-07 15:07 28.59902 104.09736 35036 ft 346 kts 57°
2026-05-07 15:07 28.62017 104.14640 35031 ft 345 kts 57°
2026-05-07 15:08 28.64338 104.19376 35022 ft 339 kts 49°
2026-05-07 15:08 28.67424 104.23347 35024 ft 333 kts 37°
2026-05-07 15:09 28.71221 104.26296 35025 ft 331 kts 27°
2026-05-07 15:09 28.75518 104.28156 35028 ft 332 kts 16°
2026-05-07 15:10 28.80116 104.28842 35029 ft 337 kts
2026-05-07 15:10 28.84824 104.28632 35029 ft 340 kts
2026-05-07 15:11 28.89539 104.28306 35029 ft 339 kts
2026-05-07 15:11 28.94254 104.28014 35029 ft 339 kts
2026-05-07 15:12 28.98173 104.27788 35030 ft 339 kts
2026-05-07 15:12 29.02885 104.27523 35029 ft 339 kts
2026-05-07 15:13 29.07591 104.27261 35028 ft 339 kts
2026-05-07 15:13 29.12307 104.26999 35029 ft 339 kts
2026-05-07 15:14 29.17019 104.26737 35029 ft 339 kts
2026-05-07 15:14 29.21733 104.26474 35029 ft 339 kts
2026-05-07 15:15 29.26445 104.26229 35028 ft 338 kts
2026-05-07 15:15 29.31082 104.26714 35029 ft 334 kts 12°
2026-05-07 15:16 29.35676 104.27517 35027 ft 334 kts 12°
2026-05-07 15:16 29.40233 104.28317 35029 ft 334 kts 12°
2026-05-07 15:17 29.44826 104.29110 35029 ft 334 kts 12°
2026-05-07 15:17 29.49423 104.29897 35028 ft 334 kts 12°
2026-05-07 15:18 29.54019 104.30683 35030 ft 334 kts 12°
2026-05-07 15:18 29.58615 104.31469 35029 ft 334 kts 12°
2026-05-07 15:19 29.63213 104.32256 35027 ft 334 kts 12°
2026-05-07 15:19 29.67808 104.33043 35028 ft 334 kts 12°
2026-05-07 15:20 29.72405 104.33830 35029 ft 334 kts 12°
2026-05-07 15:20 29.77002 104.34619 35027 ft 334 kts 12°
2026-05-07 15:21 29.81598 104.35408 35027 ft 334 kts 12°
2026-05-07 15:21 29.86194 104.36198 35030 ft 334 kts 12°
2026-05-07 15:22 29.90788 104.36989 35029 ft 334 kts 12°
2026-05-07 15:22 29.95383 104.37780 35030 ft 334 kts 12°
2026-05-07 15:23 29.99978 104.38572 35029 ft 334 kts 12°
2026-05-07 15:23 30.04574 104.39365 35029 ft 334 kts 12°
2026-05-07 15:24 30.09168 104.40158 35028 ft 334 kts 12°
2026-05-07 15:24 30.13759 104.40956 35030 ft 334 kts 12°
2026-05-07 15:25 30.18352 104.41760 35029 ft 334 kts 12°
2026-05-07 15:25 30.22942 104.42564 35029 ft 334 kts 12°
2026-05-07 15:26 30.27536 104.43369 35028 ft 334 kts 12°
2026-05-07 15:26 30.32099 104.44169 35029 ft 334 kts 12°
2026-05-07 15:27 30.36691 104.44975 35029 ft 334 kts 12°
2026-05-07 15:27 30.41282 104.45781 35029 ft 334 kts 12°
2026-05-07 15:28 30.45869 104.46587 35029 ft 334 kts 12°
2026-05-07 15:28 30.50436 104.47517 35027 ft 332 kts 16°
2026-05-07 15:29 30.54753 104.49351 35029 ft 331 kts 27°
2026-05-07 15:29 30.58559 104.52350 35027 ft 333 kts 39°
2026-05-07 15:30 30.61671 104.56367 35028 ft 339 kts 50°
2026-05-07 15:30 30.63913 104.61249 35028 ft 349 kts 62°
2026-05-07 15:31 30.65388 104.66661 35028 ft 353 kts 65°
2026-05-07 15:31 30.66736 104.72154 35030 ft 353 kts 65°
2026-05-07 15:32 30.68105 104.77629 35027 ft 353 kts 65°
2026-05-07 15:32 30.69491 104.83099 35030 ft 353 kts 65°
2026-05-07 15:33 30.70883 104.88572 35030 ft 353 kts 65°
2026-05-07 15:33 30.72274 104.94041 35032 ft 353 kts 65°
2026-05-07 15:34 30.73653 104.99475 35027 ft 353 kts 65°
2026-05-07 15:34 30.75039 105.04949 35029 ft 353 kts 65°
2026-05-07 15:35 30.76424 105.10425 35026 ft 353 kts 65°
2026-05-07 15:35 30.77804 105.15896 35028 ft 353 kts 65°
2026-05-07 15:36 30.79184 105.21373 35029 ft 353 kts 65°
2026-05-07 15:36 30.80562 105.26855 35030 ft 353 kts 65°
2026-05-07 15:37 30.81938 105.32342 35029 ft 353 kts 65°
2026-05-07 15:37 30.83310 105.37824 35026 ft 353 kts 65°
2026-05-07 15:38 30.84631 105.43334 35029 ft 355 kts 67°
2026-05-07 15:38 30.85817 105.48913 35027 ft 356 kts 68°
2026-05-07 15:39 30.86991 105.54502 35029 ft 355 kts 67°
2026-05-07 15:39 30.88172 105.60091 35030 ft 355 kts 67°
2026-05-07 15:40 30.89353 105.65677 35029 ft 355 kts 67°
2026-05-07 15:40 30.90534 105.71264 35029 ft 355 kts 67°
2026-05-07 15:41 30.91705 105.76820 35027 ft 355 kts 67°
2026-05-07 15:41 30.92889 105.82445 35030 ft 355 kts 68°
2026-05-07 15:42 30.94055 105.88003 35031 ft 355 kts 67°
2026-05-07 15:42 30.95227 105.93599 35029 ft 355 kts 68°
2026-05-07 15:43 30.96395 105.99186 35026 ft 356 kts 68°
2026-05-07 15:43 30.97137 106.04961 35031 ft 365 kts 76°
2026-05-07 15:44 30.97475 106.10878 35029 ft 366 kts 76°
2026-05-07 15:44 30.97790 106.16798 35029 ft 366 kts 76°
2026-05-07 15:45 30.98123 106.22715 35030 ft 366 kts 76°
2026-05-07 15:45 30.98463 106.28629 35027 ft 366 kts 76°
2026-05-07 15:46 30.98974 106.37504 35027 ft 366 kts 76°
2026-05-07 15:47 30.99310 106.43420 35029 ft 366 kts 76°
2026-05-07 15:47 30.99645 106.49336 35027 ft 366 kts 76°
2026-05-07 15:48 30.99977 106.55257 35028 ft 366 kts 76°
2026-05-07 15:48 31.00306 106.61176 35027 ft 366 kts 76°
2026-05-07 15:49 31.00633 106.67101 35026 ft 366 kts 76°
2026-05-07 15:49 31.00956 106.73024 35029 ft 366 kts 76°
2026-05-07 15:50 31.01277 106.78945 35028 ft 366 kts 76°
2026-05-07 15:50 31.01593 106.84825 35029 ft 366 kts 76°
2026-05-07 15:51 31.01909 106.90750 35026 ft 366 kts 76°
2026-05-07 15:51 31.02222 106.96681 35033 ft 366 kts 76°
2026-05-07 15:52 31.02514 107.02609 35028 ft 366 kts 77°
2026-05-07 15:52 31.02806 107.08541 35028 ft 366 kts 77°
2026-05-07 15:53 31.03105 107.14469 35030 ft 366 kts 77°
2026-05-07 15:53 31.03406 107.20395 35032 ft 366 kts 77°
2026-05-07 15:54 31.03705 107.26326 35027 ft 366 kts 77°
2026-05-07 15:54 31.04002 107.32258 35033 ft 367 kts 77°
2026-05-07 15:55 31.04296 107.38187 35027 ft 366 kts 77°
2026-05-07 15:55 31.04566 107.44123 35028 ft 367 kts 77°
2026-05-07 15:56 31.04759 107.50079 35026 ft 368 kts 78°
2026-05-07 15:56 31.04900 107.56046 35027 ft 368 kts 78°
2026-05-07 15:57 31.05020 107.62019 35029 ft 368 kts 78°
2026-05-07 15:57 31.05139 107.67990 35027 ft 369 kts 78°
2026-05-07 15:58 31.05253 107.73962 35023 ft 369 kts 78°
2026-05-07 15:58 31.05366 107.79939 35041 ft 369 kts 78°
2026-05-07 15:59 31.05477 107.85871 35027 ft 368 kts 78°
2026-05-07 15:59 31.05587 107.91843 35031 ft 369 kts 78°
2026-05-07 16:00 31.05694 107.97818 35029 ft 369 kts 78°
2026-05-07 16:00 31.05798 108.03800 35024 ft 369 kts 78°
2026-05-07 16:01 31.05899 108.09775 35031 ft 369 kts 78°
2026-05-07 16:01 31.05998 108.15757 35032 ft 369 kts 79°
2026-05-07 16:02 31.06094 108.21731 35034 ft 369 kts 79°
2026-05-07 16:02 31.06172 108.26705 35026 ft 369 kts 79°
2026-05-07 16:03 31.06262 108.32687 35026 ft 368 kts 79°
2026-05-07 16:03 31.06352 108.38666 35034 ft 370 kts 79°
2026-05-07 16:04 31.06437 108.44653 35025 ft 369 kts 79°
2026-05-07 16:04 31.06519 108.50636 35024 ft 369 kts 79°
2026-05-07 16:05 31.06600 108.56618 35027 ft 369 kts 79°
2026-05-07 16:05 31.06677 108.62606 35033 ft 369 kts 79°
2026-05-07 16:06 31.06735 108.68598 35031 ft 370 kts 79°
2026-05-07 16:06 31.06789 108.74590 35028 ft 370 kts 79°
2026-05-07 16:07 31.06852 108.80581 35033 ft 370 kts 79°
2026-05-07 16:07 31.06916 108.86570 35027 ft 369 kts 80°
2026-05-07 16:08 31.06980 108.92568 35024 ft 369 kts 79°
2026-05-07 16:08 31.07040 108.98557 35041 ft 370 kts 79°
2026-05-07 16:09 31.07098 109.04557 35023 ft 369 kts 79°
2026-05-07 16:09 31.07152 109.10544 35025 ft 370 kts 79°
2026-05-07 16:10 31.07204 109.16499 35030 ft 370 kts 79°
2026-05-07 16:10 31.07254 109.22492 35031 ft 370 kts 79°
2026-05-07 16:11 31.07300 109.28483 35035 ft 370 kts 79°
2026-05-07 16:11 31.07344 109.34482 35027 ft 370 kts 79°
2026-05-07 16:12 31.07386 109.40481 35027 ft 371 kts 79°
2026-05-07 16:12 31.07424 109.46501 35029 ft 370 kts 79°
2026-05-07 16:13 31.07459 109.52503 35030 ft 370 kts 79°
2026-05-07 16:13 31.07492 109.58506 35030 ft 370 kts 79°
2026-05-07 16:14 31.07508 109.64507 35026 ft 370 kts 79°
2026-05-07 16:14 31.07350 109.70531 35028 ft 380 kts 89°
2026-05-07 16:15 31.05951 109.76611 35035 ft 394 kts 97°
2026-05-07 16:15 31.04170 109.82670 35031 ft 395 kts 97°
2026-05-07 16:16 31.02411 109.88722 35030 ft 393 kts 97°
2026-05-07 16:16 31.00691 109.94777 35035 ft 393 kts 97°
2026-05-07 16:17 30.98984 110.00834 35029 ft 393 kts 97°
2026-05-07 16:17 30.97277 110.06886 35030 ft 393 kts 97°
2026-05-07 16:18 30.95566 110.12941 35030 ft 394 kts 97°
2026-05-07 16:18 30.93863 110.18957 35031 ft 393 kts 97°
2026-05-07 16:19 30.92144 110.25014 35028 ft 394 kts 97°
2026-05-07 16:19 30.90422 110.31065 35030 ft 393 kts 97°
2026-05-07 16:20 30.88699 110.37113 35026 ft 394 kts 97°
2026-05-07 16:20 30.86975 110.43153 35040 ft 393 kts 97°
2026-05-07 16:21 30.85244 110.49206 35029 ft 394 kts 97°
2026-05-07 16:21 30.83512 110.55246 35027 ft 394 kts 97°
2026-05-07 16:22 30.81776 110.61290 35029 ft 394 kts 97°
2026-05-07 16:22 30.80022 110.67325 35027 ft 394 kts 97°
2026-05-07 16:23 30.78264 110.73366 35032 ft 395 kts 97°
2026-05-07 16:23 30.76512 110.79404 35034 ft 394 kts 97°
2026-05-07 16:24 30.74763 110.85442 35033 ft 394 kts 97°
2026-05-07 16:24 30.73011 110.91485 35030 ft 394 kts 97°
2026-05-07 16:25 30.71257 110.97520 35023 ft 394 kts 97°
2026-05-07 16:25 30.69499 111.03555 35028 ft 394 kts 97°
2026-05-07 16:26 30.67740 111.09584 35028 ft 394 kts 97°
2026-05-07 16:26 30.65977 111.15615 35031 ft 394 kts 97°
2026-05-07 16:27 30.64222 111.21606 35032 ft 394 kts 97°
2026-05-07 16:27 30.62796 111.27648 35028 ft 377 kts 84°
2026-05-07 16:27 30.62805 111.30621 35024 ft 363 kts 74°
2026-05-07 16:28 30.63134 111.33496 35032 ft 359 kts 71°
2026-05-07 16:28 30.63998 111.39201 35028 ft 359 kts 71°
2026-05-07 16:29 30.64830 111.44929 35028 ft 360 kts 71°
2026-05-07 16:29 30.65426 111.50738 35029 ft 365 kts 76°
2026-05-07 16:30 30.65742 111.56642 35029 ft 367 kts 77°
2026-05-07 16:30 30.66029 111.62547 35029 ft 366 kts 77°
2026-05-07 16:31 30.66323 111.68454 35027 ft 366 kts 77°
2026-05-07 16:31 30.66621 111.74359 35027 ft 366 kts 76°
2026-05-07 16:32 30.66922 111.80268 35028 ft 367 kts 77°
2026-05-07 16:32 30.67221 111.86179 35030 ft 366 kts 77°
2026-05-07 16:33 30.67519 111.92087 35030 ft 366 kts 77°
2026-05-07 16:33 30.67842 111.97988 35029 ft 365 kts 76°
2026-05-07 16:34 30.68238 112.03865 35031 ft 365 kts 75°
2026-05-07 16:34 30.68646 112.09740 35027 ft 365 kts 76°
2026-05-07 16:35 30.69051 112.15621 35028 ft 365 kts 76°
2026-05-07 16:35 30.69452 112.21501 35028 ft 365 kts 76°
2026-05-07 16:36 30.69847 112.27343 35027 ft 365 kts 76°
2026-05-07 16:36 30.70242 112.33226 35027 ft 365 kts 76°
2026-05-07 16:37 30.70634 112.39106 35028 ft 365 kts 76°
2026-05-07 16:37 30.71024 112.44989 35029 ft 365 kts 76°
2026-05-07 16:38 30.71411 112.50873 35028 ft 365 kts 76°
2026-05-07 16:38 30.71796 112.56757 35032 ft 365 kts 76°
2026-05-07 16:39 30.72178 112.62646 35030 ft 365 kts 76°
2026-05-07 16:39 30.72557 112.68532 35030 ft 365 kts 76°
2026-05-07 16:40 30.72934 112.74422 35029 ft 365 kts 76°
2026-05-07 16:40 30.73307 112.80309 35027 ft 365 kts 76°
2026-05-07 16:41 30.73678 112.86193 35030 ft 365 kts 76°
2026-05-07 16:41 30.74016 112.91600 35028 ft 366 kts 76°
2026-05-07 16:42 30.74362 112.97496 35028 ft 366 kts 76°
2026-05-07 16:42 30.74712 113.03392 35029 ft 366 kts 76°
2026-05-07 16:43 30.75065 113.09241 35030 ft 366 kts 76°
2026-05-07 16:43 30.75387 113.15147 35029 ft 367 kts 77°
2026-05-07 16:44 30.75561 113.21092 35030 ft 368 kts 78°
2026-05-07 16:44 30.75709 113.27045 35030 ft 368 kts 78°
2026-05-07 16:45 30.75859 113.32995 35027 ft 368 kts 78°
2026-05-07 16:45 30.76010 113.38944 35029 ft 368 kts 78°
2026-05-07 16:46 30.76160 113.44898 35028 ft 368 kts 78°
2026-05-07 16:46 30.76307 113.50847 35029 ft 368 kts 78°
2026-05-07 16:47 30.76449 113.56665 35028 ft 368 kts 78°
2026-05-07 16:47 30.76591 113.62617 35028 ft 368 kts 78°
2026-05-07 16:48 30.76730 113.68570 35028 ft 368 kts 78°
2026-05-07 16:48 30.76867 113.74522 35030 ft 368 kts 78°
2026-05-07 16:49 30.77000 113.80437 35030 ft 368 kts 78°
2026-05-07 16:49 30.77131 113.86390 35030 ft 368 kts 78°
2026-05-07 16:50 30.77259 113.92349 35028 ft 369 kts 78°
2026-05-07 16:50 30.77385 113.98306 35028 ft 369 kts 78°
2026-05-07 16:51 30.77549 114.04251 35028 ft 367 kts 77°
2026-05-07 16:51 30.77778 114.10181 35028 ft 367 kts 77°
2026-05-07 16:52 30.78021 114.16110 35030 ft 367 kts 77°
2026-05-07 16:52 30.78469 114.20954 35027 ft 355 kts 66°
2026-05-07 16:53 30.80061 114.26301 35029 ft 348 kts 60°
2026-05-07 16:53 30.82143 114.32434 35027 ft 349 kts 61°
2026-05-07 16:54 30.83587 114.36815 35028 ft 349 kts 61°
2026-05-07 16:54 30.85304 114.42101 35028 ft 349 kts 62°
2026-05-07 16:55 30.87293 114.48250 35030 ft 349 kts 61°
2026-05-07 16:55 30.88708 114.52605 35029 ft 349 kts 61°
2026-05-07 16:56 30.90426 114.57891 35030 ft 349 kts 61°
2026-05-07 16:56 30.93001 114.65827 35030 ft 349 kts 62°
2026-05-07 16:57 30.94715 114.71122 35027 ft 349 kts 62°
2026-05-07 16:57 30.96414 114.76377 35028 ft 349 kts 62°
2026-05-07 16:58 30.98124 114.81673 35029 ft 349 kts 62°
2026-05-07 16:58 30.99832 114.86975 35029 ft 349 kts 62°
2026-05-07 16:59 31.01538 114.92277 35029 ft 350 kts 62°
2026-05-07 16:59 31.03233 114.97589 35029 ft 349 kts 62°
2026-05-07 17:00 31.04927 115.02899 35027 ft 349 kts 62°
2026-05-07 17:00 31.06622 115.08204 35027 ft 349 kts 61°
2026-05-07 17:01 31.08316 115.13509 35030 ft 350 kts 62°
2026-05-07 17:01 31.10012 115.18827 35026 ft 349 kts 62°
2026-05-07 17:02 31.11697 115.24146 35031 ft 350 kts 62°
2026-05-07 17:02 31.13383 115.29468 35027 ft 349 kts 62°
2026-05-07 17:03 31.15097 115.34766 35028 ft 349 kts 61°
2026-05-07 17:03 31.16818 115.40069 35028 ft 349 kts 61°
2026-05-07 17:04 31.18535 115.45370 35033 ft 349 kts 61°
2026-05-07 17:04 31.20250 115.50675 35029 ft 349 kts 62°
2026-05-07 17:05 31.21939 115.55908 35027 ft 349 kts 62°
2026-05-07 17:05 31.23655 115.61230 35028 ft 351 kts 62°
2026-05-07 17:06 31.25369 115.66556 35028 ft 350 kts 62°
2026-05-07 17:06 31.27080 115.71885 35031 ft 349 kts 62°
2026-05-07 17:07 31.28772 115.77165 35030 ft 349 kts 62°
2026-05-07 17:07 31.30465 115.82490 35031 ft 350 kts 62°
2026-05-07 17:08 31.32160 115.87818 35030 ft 349 kts 62°
2026-05-07 17:08 31.33885 115.93129 35030 ft 349 kts 61°
2026-05-07 17:09 31.35618 115.98437 35028 ft 349 kts 61°
2026-05-07 17:09 31.37352 116.03749 35032 ft 350 kts 61°
2026-05-07 17:10 31.39083 116.09067 35026 ft 350 kts 61°
2026-05-07 17:10 31.40812 116.14383 35025 ft 349 kts 61°
2026-05-07 17:11 31.42537 116.19698 35030 ft 349 kts 61°
2026-05-07 17:11 31.44261 116.25019 35029 ft 349 kts 61°
2026-05-07 17:12 31.45982 116.30337 35031 ft 349 kts 61°
2026-05-07 17:12 31.47701 116.35662 35029 ft 349 kts 61°
2026-05-07 17:13 31.49416 116.40981 35027 ft 349 kts 62°
2026-05-07 17:13 31.51131 116.46307 35032 ft 349 kts 62°
2026-05-07 17:14 31.52843 116.51635 35027 ft 349 kts 62°
2026-05-07 17:14 31.54542 116.56931 35027 ft 349 kts 61°
2026-05-07 17:15 31.56250 116.62264 35029 ft 349 kts 62°
2026-05-07 17:15 31.57957 116.67599 35030 ft 350 kts 62°
2026-05-07 17:16 31.59660 116.72936 35028 ft 349 kts 62°
2026-05-07 17:16 31.61361 116.78276 35028 ft 350 kts 62°
2026-05-07 17:17 31.63044 116.83628 35028 ft 350 kts 62°
2026-05-07 17:17 31.64729 116.88979 35028 ft 350 kts 62°
2026-05-07 17:18 31.66421 116.94330 35028 ft 350 kts 62°
2026-05-07 17:18 31.68112 116.99680 35030 ft 350 kts 62°
2026-05-07 17:19 31.69777 117.05048 35030 ft 350 kts 62°
2026-05-07 17:19 31.71431 117.10426 35027 ft 350 kts 62°
2026-05-07 17:20 31.73084 117.15800 35027 ft 350 kts 62°
2026-05-07 17:20 31.74737 117.21180 35027 ft 350 kts 62°
2026-05-07 17:21 31.76387 117.26559 35030 ft 350 kts 62°
2026-05-07 17:21 31.77410 117.32235 35029 ft 368 kts 79°
2026-05-07 17:22 31.77110 117.38325 35031 ft 377 kts 85°
2026-05-07 17:22 31.76612 117.44328 35029 ft 377 kts 84°
2026-05-07 17:23 31.76145 117.50453 35030 ft 376 kts 84°
2026-05-07 17:23 31.75709 117.56570 35029 ft 376 kts 84°
2026-05-07 17:24 31.75284 117.62679 35031 ft 375 kts 84°
2026-05-07 17:24 31.74858 117.68792 34937 ft 375 kts 84°
2026-05-07 17:25 31.74428 117.74911 34929 ft 376 kts 84°
2026-05-07 17:25 31.73995 117.81034 34928 ft 376 kts 84°
2026-05-07 17:26 31.73559 117.87155 34929 ft 376 kts 84°
2026-05-07 17:26 31.73120 117.93278 34929 ft 376 kts 84°
2026-05-07 17:27 31.72678 117.99395 34929 ft 376 kts 84°
2026-05-07 17:27 31.72233 118.05517 34929 ft 376 kts 84°
2026-05-07 17:28 31.71785 118.11636 34929 ft 376 kts 84°
2026-05-07 17:28 31.71342 118.17645 34925 ft 363 kts 84°
2026-05-07 17:29 31.70930 118.23538 34929 ft 362 kts 83°
2026-05-07 17:29 31.70524 118.29427 34929 ft 362 kts 83°
2026-05-07 17:30 31.70113 118.35319 34929 ft 362 kts 84°
2026-05-07 17:30 31.69699 118.41206 34929 ft 362 kts 84°
2026-05-07 17:31 31.69281 118.47097 34930 ft 362 kts 84°
2026-05-07 17:31 31.68861 118.52984 34928 ft 362 kts 84°
2026-05-07 17:32 31.68440 118.58830 34929 ft 362 kts 84°
2026-05-07 17:32 31.68083 118.63768 34928 ft 362 kts 84°
2026-05-07 17:33 31.67585 118.70614 34928 ft 362 kts 84°
2026-05-07 17:33 31.67153 118.76504 34929 ft 362 kts 84°
2026-05-07 17:34 31.66718 118.82396 34933 ft 362 kts 84°
2026-05-07 17:34 31.66281 118.88285 34929 ft 362 kts 84°
2026-05-07 17:35 31.65841 118.94174 34929 ft 362 kts 84°
2026-05-07 17:35 31.65392 119.00069 34928 ft 363 kts 84°
2026-05-07 17:36 31.64984 119.05779 34929 ft 361 kts 83°
2026-05-07 17:36 31.64670 119.11654 34928 ft 360 kts 82°
2026-05-07 17:37 31.64392 119.17523 34927 ft 360 kts 82°
2026-05-07 17:37 31.64132 119.23386 34928 ft 360 kts 82°
2026-05-07 17:38 31.63872 119.29249 34930 ft 360 kts 82°
2026-05-07 17:38 31.63607 119.35115 34929 ft 360 kts 82°
2026-05-07 17:39 31.63334 119.40981 34929 ft 360 kts 82°
2026-05-07 17:39 31.63055 119.46848 34929 ft 360 kts 82°
2026-05-07 17:40 31.62776 119.52712 34929 ft 360 kts 82°
2026-05-07 17:40 31.62495 119.58581 34929 ft 360 kts 82°
2026-05-07 17:41 31.62213 119.64445 34929 ft 360 kts 82°
2026-05-07 17:41 31.61934 119.70310 34929 ft 360 kts 82°
2026-05-07 17:42 31.61710 119.75185 34929 ft 360 kts 82°
2026-05-07 17:42 31.61400 119.81993 34929 ft 360 kts 82°
2026-05-07 17:43 31.61135 119.87772 34929 ft 360 kts 82°
2026-05-07 17:43 31.60907 119.92687 34929 ft 360 kts 82°
2026-05-07 17:44 31.60633 119.98549 34929 ft 360 kts 82°
2026-05-07 17:44 31.60312 120.05362 34929 ft 360 kts 82°
2026-05-07 17:45 31.60078 120.10278 34929 ft 360 kts 82°
2026-05-07 17:45 31.59796 120.16141 34929 ft 360 kts 82°
2026-05-07 17:46 31.59511 120.22008 34929 ft 360 kts 82°
2026-05-07 17:46 31.59224 120.27872 34928 ft 360 kts 82°
2026-05-07 17:47 31.58417 120.33766 34930 ft 377 kts 95°
2026-05-07 17:47 31.56714 120.39634 34929 ft 382 kts 98°
2026-05-07 17:48 31.54921 120.45451 34928 ft 382 kts 98°
2026-05-07 17:48 31.53150 120.51311 34929 ft 381 kts 97°
2026-05-07 17:49 31.51400 120.57170 34929 ft 381 kts 97°
2026-05-07 17:49 31.49654 120.63032 34929 ft 381 kts 97°
2026-05-07 17:50 31.47907 120.68890 34928 ft 381 kts 97°
2026-05-07 17:50 31.46156 120.74750 34928 ft 381 kts 97°
2026-05-07 17:51 31.44402 120.80606 34928 ft 381 kts 97°
2026-05-07 17:51 31.42646 120.86461 34928 ft 381 kts 97°
2026-05-07 17:52 31.40886 120.92315 34930 ft 381 kts 97°
2026-05-07 17:52 31.39124 120.98168 34928 ft 381 kts 97°
2026-05-07 17:53 31.37359 121.04017 34928 ft 381 kts 97°
2026-05-07 17:53 31.35589 121.09869 34929 ft 382 kts 98°
2026-05-07 17:54 31.33782 121.15709 34929 ft 382 kts 98°
2026-05-07 17:54 31.31968 121.21550 34928 ft 382 kts 98°
2026-05-07 17:55 31.30160 121.27386 34934 ft 382 kts 98°
2026-05-07 17:55 31.28359 121.33226 34933 ft 381 kts 97°
2026-05-07 17:56 31.26815 121.39099 34929 ft 376 kts 94°
2026-05-07 17:56 31.25400 121.44983 34929 ft 376 kts 94°
2026-05-07 17:57 31.24224 121.49877 34930 ft 376 kts 94°
2026-05-07 17:57 31.22568 121.56713 34929 ft 376 kts 94°
2026-05-07 17:58 31.21137 121.62588 34929 ft 376 kts 94°
2026-05-07 17:58 31.19700 121.68468 34928 ft 376 kts 94°
2026-05-07 17:59 31.18263 121.74345 34928 ft 376 kts 94°
2026-05-07 17:59 31.17603 121.80188 34927 ft 350 kts 75°
2026-05-07 18:00 31.18499 121.85672 34929 ft 342 kts 67°
2026-05-07 18:00 31.19630 121.91061 34932 ft 342 kts 67°
2026-05-07 18:01 31.20717 121.96473 34928 ft 342 kts 68°
2026-05-07 18:01 31.21771 122.01900 34930 ft 343 kts 68°
2026-05-07 18:02 31.23330 122.10055 34932 ft 343 kts 68°
2026-05-07 18:03 31.24364 122.15499 34931 ft 343 kts 68°
2026-05-07 18:03 31.25394 122.20937 34928 ft 343 kts 68°
2026-05-07 18:04 31.26422 122.26380 34933 ft 343 kts 68°
2026-05-07 18:04 31.27448 122.31825 34928 ft 343 kts 68°
2026-05-07 18:05 31.28472 122.37271 34928 ft 343 kts 68°
2026-05-07 18:05 31.29494 122.42719 34928 ft 343 kts 68°
2026-05-07 18:06 31.30515 122.48129 34931 ft 343 kts 68°
2026-05-07 18:06 31.31554 122.53570 34928 ft 343 kts 68°
2026-05-07 18:07 31.32597 122.59009 34933 ft 343 kts 68°
2026-05-07 18:07 31.33640 122.64452 34928 ft 343 kts 68°
2026-05-07 18:08 31.34680 122.69891 34928 ft 343 kts 68°
2026-05-07 18:08 31.35719 122.75337 34928 ft 343 kts 68°
2026-05-07 18:09 31.36764 122.80778 34928 ft 343 kts 68°
2026-05-07 18:09 31.37819 122.86215 34928 ft 343 kts 68°
2026-05-07 18:10 31.38875 122.91654 34930 ft 343 kts 68°
2026-05-07 18:10 31.39931 122.97093 34928 ft 343 kts 68°
2026-05-07 18:11 31.40983 123.02531 34930 ft 343 kts 68°
2026-05-07 18:11 31.42035 123.07974 34928 ft 343 kts 68°
2026-05-07 18:12 31.43083 123.13417 34928 ft 343 kts 68°
2026-05-07 18:12 31.44129 123.18859 34935 ft 343 kts 68°
2026-05-07 18:13 31.45173 123.24304 34928 ft 343 kts 68°
2026-05-07 18:13 31.46215 123.29752 34928 ft 343 kts 68°
2026-05-07 18:14 31.47255 123.35201 34931 ft 343 kts 68°
2026-05-07 18:14 31.48293 123.40651 34928 ft 343 kts 68°
2026-05-07 18:15 31.49328 123.46105 34932 ft 343 kts 68°
2026-05-07 18:15 31.50400 123.51538 34928 ft 342 kts 67°
2026-05-07 18:16 31.51574 123.56928 34932 ft 341 kts 66°
2026-05-07 18:16 31.52765 123.62304 34928 ft 341 kts 66°
2026-05-07 18:17 31.53957 123.67685 34928 ft 341 kts 66°
2026-05-07 18:17 31.55145 123.73064 34930 ft 341 kts 66°
2026-05-07 18:18 31.56333 123.78449 34930 ft 341 kts 66°
2026-05-07 18:18 31.57517 123.83834 34928 ft 341 kts 66°
2026-05-07 18:19 31.58699 123.89220 34928 ft 341 kts 66°
2026-05-07 18:19 31.59879 123.94612 34928 ft 341 kts 66°
2026-05-07 18:20 31.61050 123.99963 34928 ft 341 kts 66°
2026-05-07 18:20 31.62238 124.05349 34928 ft 341 kts 66°
2026-05-07 18:21 31.63434 124.10733 34928 ft 341 kts 66°
2026-05-07 18:21 31.64630 124.16115 34928 ft 341 kts 66°
2026-05-07 18:22 31.65826 124.21500 34933 ft 341 kts 66°
2026-05-07 18:22 31.67020 124.26886 34928 ft 341 kts 66°
2026-05-07 18:23 31.68212 124.32271 34928 ft 341 kts 66°
2026-05-07 18:23 31.69401 124.37660 34930 ft 341 kts 66°
2026-05-07 18:24 31.70588 124.43050 34928 ft 341 kts 66°
2026-05-07 18:24 31.71774 124.48444 34931 ft 341 kts 66°
2026-05-07 18:25 31.72957 124.53839 34928 ft 341 kts 66°
2026-05-07 18:25 31.74138 124.59237 34928 ft 341 kts 66°
2026-05-07 18:26 31.75316 124.64633 34930 ft 341 kts 66°
2026-05-07 18:26 31.76493 124.70034 34928 ft 341 kts 66°
2026-05-07 18:27 31.77667 124.75436 34931 ft 341 kts 66°
2026-05-07 18:27 31.78840 124.80841 34928 ft 341 kts 66°
2026-05-07 18:28 31.80008 124.86240 34933 ft 341 kts 66°
2026-05-07 18:28 31.81176 124.91647 34930 ft 341 kts 66°
2026-05-07 18:29 31.82136 124.96147 34928 ft 342 kts 67°
2026-05-07 18:29 31.82705 125.01782 34929 ft 360 kts 83°
2026-05-07 18:30 31.81909 125.07702 34929 ft 371 kts 90°
2026-05-07 18:30 31.80865 125.13638 34929 ft 371 kts 90°
2026-05-07 18:31 31.79857 125.19572 34929 ft 370 kts 89°
2026-05-07 18:31 31.78880 125.25509 34929 ft 370 kts 89°
2026-05-07 18:32 31.77913 125.31441 34929 ft 370 kts 89°
2026-05-07 18:32 31.76945 125.37376 34929 ft 370 kts 89°
2026-05-07 18:33 31.75974 125.43312 34929 ft 370 kts 89°
2026-05-07 18:33 31.75002 125.49243 34929 ft 370 kts 89°
2026-05-07 18:34 31.74025 125.55176 34929 ft 370 kts 89°
2026-05-07 18:34 31.73047 125.61105 34929 ft 370 kts 89°
2026-05-07 18:35 31.72414 125.67003 34926 ft 353 kts 76°
2026-05-07 18:35 31.72752 125.69800 34929 ft 342 kts 68°
2026-05-07 18:35 31.73325 125.72506 34929 ft 340 kts 66°
2026-05-07 18:36 31.74592 125.77855 34928 ft 340 kts 65°
2026-05-07 18:36 31.75832 125.83223 34928 ft 341 kts 66°
2026-05-07 18:37 31.77037 125.88608 34929 ft 341 kts 66°
2026-05-07 18:37 31.78228 125.94002 34928 ft 341 kts 66°
2026-05-07 18:38 31.79409 125.99403 34932 ft 341 kts 66°
2026-05-07 18:38 31.80589 126.04802 34928 ft 341 kts 66°
2026-05-07 18:39 31.81769 126.10203 34928 ft 341 kts 66°
2026-05-07 18:39 31.82948 126.15608 34931 ft 341 kts 66°
2026-05-07 18:40 31.84125 126.21014 34928 ft 341 kts 66°
2026-05-07 18:40 31.85298 126.26418 34928 ft 341 kts 66°
2026-05-07 18:41 31.86463 126.31791 34928 ft 341 kts 66°
2026-05-07 18:41 31.87632 126.37201 34928 ft 341 kts 66°
2026-05-07 18:42 31.88800 126.42615 34928 ft 341 kts 66°
2026-05-07 18:42 31.89966 126.48028 34928 ft 341 kts 66°
2026-05-07 18:43 31.91140 126.53432 34928 ft 341 kts 66°
2026-05-07 18:43 31.92324 126.58835 34928 ft 341 kts 66°
2026-05-07 18:44 31.93512 126.64243 34928 ft 341 kts 66°
2026-05-07 18:44 31.94698 126.69647 34933 ft 341 kts 66°
2026-05-07 18:45 31.95882 126.75055 34928 ft 341 kts 66°
2026-05-07 18:45 31.97064 126.80465 34928 ft 341 kts 66°
2026-05-07 18:46 31.98243 126.85874 34928 ft 341 kts 66°
2026-05-07 18:46 31.99421 126.91288 34928 ft 341 kts 66°
2026-05-07 18:47 32.00597 126.96704 34931 ft 341 kts 66°
2026-05-07 18:47 32.01770 127.02122 34928 ft 341 kts 66°
2026-05-07 18:48 32.02941 127.07540 34928 ft 341 kts 66°
2026-05-07 18:48 32.04295 127.12813 34930 ft 335 kts 60°
2026-05-07 18:49 32.06130 127.17830 34929 ft 333 kts 58°
2026-05-07 18:49 32.08023 127.22810 34929 ft 333 kts 58°
2026-05-07 18:50 32.09908 127.27798 34929 ft 333 kts 58°
2026-05-07 18:50 32.11784 127.32791 34929 ft 333 kts 58°
2026-05-07 18:51 32.13653 127.37791 34929 ft 333 kts 58°
2026-05-07 18:51 32.15518 127.42791 34929 ft 333 kts 58°
2026-05-07 18:52 32.17385 127.47795 34929 ft 333 kts 58°
2026-05-07 18:52 32.19251 127.52800 34929 ft 333 kts 58°
2026-05-07 18:53 32.21114 127.57807 34929 ft 333 kts 58°
2026-05-07 18:53 32.22976 127.62816 34929 ft 333 kts 59°
2026-05-07 18:54 32.24837 127.67830 34929 ft 333 kts 59°
2026-05-07 18:54 32.26696 127.72844 34929 ft 333 kts 59°
2026-05-07 18:55 32.28553 127.77861 34929 ft 333 kts 59°
2026-05-07 18:55 32.30408 127.82881 34929 ft 333 kts 59°
2026-05-07 18:56 32.32260 127.87900 34929 ft 333 kts 59°
2026-05-07 18:56 32.34111 127.92925 34929 ft 333 kts 59°
2026-05-07 18:57 32.35960 127.97951 34929 ft 333 kts 59°
2026-05-07 18:57 32.37808 128.02980 34929 ft 333 kts 59°
2026-05-07 18:58 32.39639 128.07972 34929 ft 333 kts 59°
2026-05-07 18:58 32.41483 128.13007 34929 ft 333 kts 59°
2026-05-07 18:59 32.43324 128.18041 34929 ft 333 kts 59°
2026-05-07 18:59 32.45163 128.23078 34929 ft 333 kts 59°
2026-05-07 19:00 32.46989 128.28130 34929 ft 334 kts 59°
2026-05-07 19:00 32.48810 128.33179 34929 ft 334 kts 59°
2026-05-07 19:01 32.50639 128.38229 34929 ft 333 kts 59°
2026-05-07 19:01 32.52469 128.43279 34929 ft 333 kts 59°
2026-05-07 19:02 32.54298 128.48328 34929 ft 333 kts 59°
2026-05-07 19:02 32.56127 128.53381 34929 ft 334 kts 59°
2026-05-07 19:03 32.57953 128.58436 34929 ft 334 kts 59°
2026-05-07 19:03 32.59777 128.63492 34929 ft 334 kts 59°
2026-05-07 19:04 32.61599 128.68551 34927 ft 333 kts 59°
2026-05-07 19:04 32.63420 128.73614 34928 ft 334 kts 59°
2026-05-07 19:05 32.65239 128.78679 34932 ft 334 kts 59°
2026-05-07 19:05 32.67046 128.83756 34928 ft 335 kts 61°
2026-05-07 19:06 32.68358 128.89093 34927 ft 341 kts 67°
2026-05-07 19:06 32.70004 128.97335 34928 ft 342 kts 68°
2026-05-07 19:07 32.71108 129.02830 34928 ft 342 kts 67°
2026-05-07 19:07 32.72217 129.08320 34928 ft 342 kts 67°
2026-05-07 19:08 32.73328 129.13812 34928 ft 342 kts 67°
2026-05-07 19:08 32.74437 129.19306 34928 ft 342 kts 67°
2026-05-07 19:09 32.75544 129.24798 34929 ft 342 kts 67°
2026-05-07 19:09 32.76649 129.30295 34928 ft 342 kts 67°
2026-05-07 19:10 32.77751 129.35795 34928 ft 342 kts 68°
2026-05-07 19:10 32.78851 129.41295 34928 ft 342 kts 68°
2026-05-07 19:11 32.79950 129.46797 34928 ft 342 kts 68°
2026-05-07 19:11 32.81045 129.52299 34928 ft 342 kts 68°
2026-05-07 19:12 32.82138 129.57804 34928 ft 342 kts 68°
2026-05-07 19:12 32.83229 129.63312 34928 ft 342 kts 68°
2026-05-07 19:13 32.84316 129.68815 34928 ft 342 kts 68°
2026-05-07 19:13 32.85318 129.74365 34932 ft 345 kts 70°
2026-05-07 19:14 32.86134 129.79997 34930 ft 346 kts 71°
2026-05-07 19:14 32.86935 129.85635 34928 ft 346 kts 71°
2026-05-07 19:15 32.87744 129.91273 34927 ft 346 kts 71°
2026-05-07 19:15 32.88554 129.96909 34929 ft 346 kts 71°
2026-05-07 19:16 32.89364 130.02547 34928 ft 346 kts 71°
2026-05-07 19:16 32.90167 130.08147 34929 ft 346 kts 71°
2026-05-07 19:17 32.90972 130.13783 34929 ft 346 kts 71°
2026-05-07 19:17 32.91775 130.19426 34928 ft 346 kts 71°
2026-05-07 19:18 32.92576 130.25071 34928 ft 346 kts 71°
2026-05-07 19:18 32.93375 130.30719 34928 ft 346 kts 71°
2026-05-07 19:19 32.94041 130.35449 34928 ft 346 kts 71°
2026-05-07 19:19 32.94835 130.41096 34928 ft 346 kts 71°
2026-05-07 19:20 32.95626 130.46744 34929 ft 346 kts 71°
2026-05-07 19:20 32.96415 130.52395 34928 ft 346 kts 71°
2026-05-07 19:21 32.97201 130.58049 34927 ft 346 kts 71°
2026-05-07 19:21 32.97985 130.63702 34927 ft 346 kts 71°
2026-05-07 19:22 32.98760 130.69318 34934 ft 346 kts 71°
2026-05-07 19:22 32.99518 130.74985 34928 ft 346 kts 71°
2026-05-07 19:23 33.00280 130.80648 34930 ft 346 kts 71°
2026-05-07 19:23 33.01048 130.86307 34932 ft 346 kts 71°
2026-05-07 19:24 33.01818 130.91971 34929 ft 346 kts 71°
2026-05-07 19:24 33.02586 130.97632 34931 ft 346 kts 71°
2026-05-07 19:25 33.03353 131.03296 34928 ft 346 kts 71°